Weather History for Auburn-Lewiston, ME

Change the Weather History Date:

Monday, November 19, 2012

  Actual Average Record
Temperature  
Mean Temperature 32 °F -  
Max Temperature 46 °F 41 °F 59 °F (2001)
Min Temperature 19 °F 27 °F 15 °F (2005)
Degree Days  
Heating Degree Days 32    
Moisture  
Dew Point 19 °F    
Average Humidity 69    
Maximum Humidity 93    
Minimum Humidity 34    
Precipitation  
Precipitation 0.00 in - - ()
Sea Level Pressure  
Sea Level Pressure 30.46 in    
Wind  
Wind Speed 1 mph (NNE)    
Max Wind Speed 6 mph    
Max Gust Speed -    
Visibility 10 miles    
Events      
Averages and records for this station are not official NWS values.
T = Trace of Precipitation, MM = Missing Value Source: NWS Daily Summary

Daily Weather History Graph

Daily Weather History Graph

Search for Another Location

Airport:

Trip Planner

Search our weather history database for the weather conditions in past years. The results will help you decide how hot, cold, wet, or windy it might be!

Date:

Astronomy

Nov. 19, 2012 Rise Set
Actual Time 6:42 AM EST 4:10 PM EST
Civil Twilight 6:10 AM EST 4:42 PM EST
Nautical Twilight 5:35 AM EST 5:17 PM EST
Astronomical Twilight 5:00 AM EST 5:51 PM EST
Moon 11:38 AM EST (11/19) 10:40 PM EST (11/19)
Length of Visible Light 10h 31m
Length of Day
9h 28m
Waxing Crescent, 40% of the Moon is Illuminated
Nov 19
Waxing Crescent
Nov 20
First Quarter
Nov 28
Full
Dec 6
Last Quarter
Dec 13
New

Hourly Weather History & Observations

Time (EST) Temp. Windchill Dew Point Humidity Pressure Visibility Wind Dir Wind Speed Gust Speed Precip Events Conditions
12:15 AM 21.2 °F 16.4 °F 15.8 °F 80% 30.63 in 10.0 mi North 3.5 mph - N/A   Clear
12:55 AM 19.4 °F - 15.8 °F 86% 30.62 in 10.0 mi Calm Calm - N/A   Clear
1:15 AM 21.2 °F - 15.8 °F 80% 30.62 in 10.0 mi Calm Calm - N/A   Clear
1:35 AM 19.4 °F - 17.6 °F 93% 30.62 in 10.0 mi Calm Calm - N/A   Clear
1:55 AM 21.2 °F 16.4 °F 17.6 °F 86% 30.61 in 10.0 mi NNE 3.5 mph - N/A   Clear
2:15 AM 21.2 °F - 15.8 °F 80% 30.61 in 10.0 mi Calm Calm - N/A   Clear
2:36 AM 21.2 °F - 15.8 °F 80% 30.60 in 10.0 mi Calm Calm - N/A   Clear
2:55 AM 21.2 °F - 15.8 °F 80% 30.60 in 10.0 mi Calm Calm - N/A   Clear
3:15 AM 21.2 °F - 17.6 °F 86% 30.60 in 10.0 mi Calm Calm - N/A   Clear
3:35 AM 21.2 °F 16.4 °F 15.8 °F 80% 30.59 in 10.0 mi North 3.5 mph - N/A   Clear
3:55 AM 21.2 °F - 15.8 °F 80% 30.59 in 10.0 mi Calm Calm - N/A   Clear
4:15 AM 21.2 °F 16.4 °F 15.8 °F 80% 30.59 in 10.0 mi North 3.5 mph - N/A   Clear
4:35 AM 21.2 °F - 15.8 °F 80% 30.58 in 10.0 mi Calm Calm - N/A   Clear
4:55 AM 19.4 °F - 15.8 °F 86% 30.58 in 10.0 mi Calm Calm - N/A   Clear
5:15 AM 19.4 °F - 15.8 °F 86% 30.59 in 10.0 mi Calm Calm - N/A   Mostly Cloudy
5:35 AM 19.4 °F 14.3 °F 15.8 °F 86% 30.58 in 10.0 mi NNE 3.5 mph - N/A   Mostly Cloudy
5:55 AM 21.2 °F 16.4 °F 17.6 °F 86% 30.57 in 10.0 mi North 3.5 mph - N/A   Overcast
6:15 AM 19.4 °F - 15.8 °F 86% 30.58 in 10.0 mi Calm Calm - N/A   Scattered Clouds
6:35 AM 19.4 °F - 15.8 °F 86% 30.57 in 10.0 mi Calm Calm - N/A   Clear
6:55 AM 19.4 °F - 15.8 °F 86% 30.57 in 10.0 mi Calm Calm - N/A   Clear
7:15 AM 19.4 °F - 15.8 °F 86% 30.57 in 10.0 mi Calm Calm - N/A   Clear
7:35 AM 21.2 °F - 15.8 °F 80% 30.56 in 10.0 mi Calm Calm - N/A   Clear
7:55 AM 21.2 °F 16.4 °F 17.6 °F 86% 30.56 in 10.0 mi NNW 3.5 mph - N/A   Clear
8:35 AM 26.6 °F - 19.4 °F 74% 30.55 in 10.0 mi Calm Calm - N/A   Clear
8:55 AM 26.6 °F - 19.4 °F 74% 30.54 in 10.0 mi Calm Calm - N/A   Clear
9:15 AM 28.4 °F - 19.4 °F 69% 30.54 in 10.0 mi Calm Calm - N/A   Clear
9:35 AM 30.2 °F - 19.4 °F 64% 30.53 in 10.0 mi Calm Calm - N/A   Clear
9:55 AM 33.8 °F - 21.2 °F 60% 30.53 in 10.0 mi Calm Calm - N/A   Clear
10:15 AM 35.6 °F - 19.4 °F 52% 30.53 in 10.0 mi Calm Calm - N/A   Clear
10:35 AM 39.2 °F - 19.4 °F 45% 30.51 in 10.0 mi Calm Calm - N/A   Clear
11:15 AM 39.2 °F 37.0 °F 15.8 °F 39% 30.49 in 10.0 mi North 3.5 mph - N/A   Clear
11:35 AM 41.0 °F - 15.8 °F 36% 30.48 in 10.0 mi Calm Calm - N/A   Clear
11:55 AM 42.8 °F - 19.4 °F 39% 30.47 in 10.0 mi Calm Calm - N/A   Clear
12:15 PM 44.6 °F - 19.4 °F 37% 30.46 in 10.0 mi Calm Calm - N/A   Clear
12:35 PM 44.6 °F - 21.2 °F 39% 30.46 in 10.0 mi Calm Calm - N/A   Clear
12:55 PM 44.6 °F - 19.4 °F 37% 30.45 in 10.0 mi Calm Calm - N/A   Clear
1:15 PM 44.6 °F - 19.4 °F 37% 30.44 in 10.0 mi Calm Calm - N/A   Clear
1:35 PM 46.4 °F - 19.4 °F 34% 30.43 in 10.0 mi Calm Calm - N/A   Clear
1:55 PM 44.6 °F - 21.2 °F 39% 30.42 in 10.0 mi Calm Calm - N/A   Clear
2:15 PM 46.4 °F 45.2 °F 19.4 °F 34% 30.41 in 10.0 mi ESE 3.5 mph - N/A   Clear
2:35 PM 44.6 °F - 19.4 °F 37% 30.40 in 10.0 mi Calm Calm - N/A   Clear
2:55 PM 44.6 °F - 21.2 °F 39% 30.40 in 10.0 mi Calm Calm - N/A   Clear
3:15 PM 44.6 °F - 21.2 °F 39% 30.40 in 10.0 mi Calm Calm - N/A   Clear
3:35 PM 44.6 °F 42.2 °F 21.2 °F 39% 30.40 in 10.0 mi South 4.6 mph - N/A   Clear
3:55 PM 44.6 °F 43.1 °F 21.2 °F 39% 30.39 in 10.0 mi SSE 3.5 mph - N/A   Clear
4:15 PM 42.8 °F 41.1 °F 21.2 °F 42% 30.39 in 10.0 mi SSE 3.5 mph - N/A   Clear
4:35 PM 35.6 °F - 19.4 °F 52% 30.38 in 10.0 mi Calm Calm - N/A   Clear
4:55 PM 37.4 °F 32.8 °F 21.2 °F 52% 30.38 in 10.0 mi SSE 5.8 mph - N/A   Clear
5:15 PM 33.8 °F - 21.2 °F 60% 30.37 in 10.0 mi Calm Calm - N/A   Clear
5:36 PM 30.2 °F - 19.4 °F 64% 30.37 in 10.0 mi Calm Calm - N/A   Clear
5:55 PM 28.4 °F - 21.2 °F 74% 30.37 in 10.0 mi Calm Calm - N/A   Clear
6:15 PM 28.4 °F - 21.2 °F 74% 30.37 in 10.0 mi Calm Calm - N/A   Clear
6:35 PM 28.4 °F - 21.2 °F 74% 30.36 in 10.0 mi Calm Calm - N/A   Clear
6:55 PM 28.4 °F - 21.2 °F 74% 30.36 in 10.0 mi Calm Calm - N/A   Clear
7:15 PM 26.6 °F - 21.2 °F 80% 30.35 in 10.0 mi Calm Calm - N/A   Clear
7:35 PM 26.6 °F - 21.2 °F 80% 30.34 in 10.0 mi Calm Calm - N/A   Clear
7:55 PM 26.6 °F - 21.2 °F 80% 30.34 in 10.0 mi Calm Calm - N/A   Clear
8:15 PM 26.6 °F - 21.2 °F 80% 30.33 in 10.0 mi Calm Calm - N/A   Clear
8:35 PM 26.6 °F - 21.2 °F 80% 30.33 in 10.0 mi Calm Calm - N/A   Clear
8:55 PM 24.8 °F - 21.2 °F 86% 30.32 in 10.0 mi Calm Calm - N/A   Clear
9:15 PM 24.8 °F - 21.2 °F 86% 30.31 in 10.0 mi Calm Calm - N/A   Clear
9:35 PM 26.6 °F - 19.4 °F 74% 30.30 in 10.0 mi Calm Calm - N/A   Clear
9:55 PM 26.6 °F - 23.0 °F 86% 30.30 in 10.0 mi Calm Calm - N/A   Clear
10:15 PM 24.8 °F - 21.2 °F 86% 30.30 in 10.0 mi Calm Calm - N/A   Clear
10:35 PM 23.0 °F - 19.4 °F 86% 30.29 in 10.0 mi Calm Calm - N/A   Clear
10:55 PM 24.8 °F - 21.2 °F 86% 30.28 in 10.0 mi Calm Calm - N/A   Clear
11:15 PM 24.8 °F - 21.2 °F 86% 30.28 in 10.0 mi Calm Calm - N/A   Clear
11:35 PM 26.6 °F 22.6 °F 23.0 °F 86% 30.28 in 10.0 mi North 3.5 mph - N/A   Clear
11:55 PM 24.8 °F 20.5 °F 21.2 °F 86% 30.27 in 10.0 mi North 3.5 mph - N/A   Clear